contact:dominique.lefevre@mio.osupytheas.fr, maurice.libes@osupytheas.fr, didier.mallarino@osupytheas.fr
Project:EMSO http://www.emso-fr.org/EMSO-France
Depth: 2436.0 m
Title:EMSO Ligure Ouest : Data MII capteur MICROCAT
DateTime_Computer,Latitude,Longitude,Temperature,Conductivity,Pressure,DateTime_Instrument
DateTime_Computer,Latitude,Longitude,degC,S m-1,dbar,DateTime_Instrument
2020-09-29T07:08:08Z,42.805,6.029,13.2986,4.59992,2470.203,2020-9-29T09:09:00Z
2020-09-29T07:11:11Z,42.805,6.029,13.2985,4.59991,2470.194,2020-9-29T09:12:04Z
2020-09-29T07:14:14Z,42.805,6.029,13.2986,4.59996,2470.18,2020-9-29T09:15:07Z
2020-09-29T07:23:09Z,42.805,6.029,13.2986,4.59999,2470.203,2020-9-29T09:24:01Z
2020-09-29T07:26:12Z,42.805,6.029,13.2987,4.59996,2470.171,2020-9-29T09:27:04Z
2020-09-29T07:29:15Z,42.805,6.029,13.2986,4.59996,2470.194,2020-9-29T09:30:08Z
2020-09-29T07:32:18Z,42.805,6.029,13.2983,4.59994,2470.194,2020-9-29T09:33:11Z
2020-09-29T07:35:21Z,42.805,6.029,13.2982,4.59990,2470.194,2020-9-29T09:36:14Z
2020-09-29T07:38:24Z,42.805,6.029,13.2983,4.59990,2470.203,2020-9-29T09:39:17Z
2020-09-29T07:41:27Z,42.805,6.029,13.2982,4.60003,2470.194,2020-9-29T09:42:20Z
2020-09-29T07:44:30Z,42.805,6.029,13.2986,4.59991,2470.18,2020-9-29T09:45:23Z
2020-09-29T07:47:34Z,42.805,6.029,13.2982,4.59988,2470.156,2020-9-29T09:48:26Z
2020-09-29T07:50:37Z,42.805,6.029,13.2984,4.59993,2470.147,2020-9-29T09:51:29Z
2020-09-29T07:53:40Z,42.805,6.029,13.2982,4.59991,2470.194,2020-9-29T09:54:33Z
2020-09-29T07:56:43Z,42.805,6.029,13.2986,4.59988,2470.194,2020-9-29T09:57:36Z
2020-09-29T07:59:46Z,42.805,6.029,13.2986,4.59992,2470.18,2020-9-29T10:00:39Z
2020-09-29T08:02:49Z,42.805,6.029,13.2983,4.59989,2470.171,2020-9-29T10:03:42Z
2020-09-29T08:05:52Z,42.805,6.029,13.2982,4.59991,2470.171,2020-9-29T10:06:45Z
2020-09-29T08:08:55Z,42.805,6.029,13.2987,4.59993,2470.171,2020-9-29T10:09:48Z
2020-09-29T08:11:59Z,42.805,6.029,13.2983,4.59989,2470.156,2020-9-29T10:12:51Z
2020-09-29T08:15:02Z,42.805,6.029,13.2986,4.59998,2470.18,2020-9-29T10:15:54Z
2020-09-29T08:18:05Z,42.805,6.029,13.2986,4.59993,2470.143,2020-9-29T10:18:58Z
2020-09-29T08:21:08Z,42.805,6.029,13.2986,4.59991,2470.156,2020-9-29T10:22:01Z
2020-09-29T08:24:11Z,42.805,6.029,13.2979,4.59989,2470.133,2020-9-29T10:25:04Z
2020-09-29T08:27:14Z,42.805,6.029,13.2988,4.59991,2470.171,2020-9-29T10:28:07Z
2020-09-29T08:30:17Z,42.805,6.029,13.2980,4.59988,2470.119,2020-9-29T10:31:10Z
2020-09-29T08:33:20Z,42.805,6.029,13.2989,4.59993,2470.156,2020-9-29T10:34:13Z
2020-09-29T08:36:23Z,42.805,6.029,13.2986,4.59991,2470.133,2020-9-29T10:37:16Z
2020-09-29T08:39:27Z,42.805,6.029,13.2984,4.59994,2470.156,2020-9-29T10:40:19Z
2020-09-29T08:42:30Z,42.805,6.029,13.2981,4.59991,2470.133,2020-9-29T10:43:23Z
2020-09-29T08:45:33Z,42.805,6.029,13.2982,4.59990,2470.194,2020-9-29T10:46:26Z
2020-09-29T08:48:36Z,42.805,6.029,13.2983,4.59989,2470.156,2020-9-29T10:49:29Z
2020-09-29T08:51:39Z,42.805,6.029,13.2982,4.59990,2470.11,2020-9-29T10:52:32Z
2020-09-29T08:54:42Z,42.805,6.029,13.2979,4.59990,2470.133,2020-9-29T10:55:35Z
2020-09-29T08:57:45Z,42.805,6.029,13.2985,4.59993,2470.133,2020-9-29T10:58:38Z
2020-09-29T09:00:49Z,42.805,6.029,13.2982,4.59994,2470.156,2020-9-29T11:01:41Z
2020-09-29T09:03:52Z,42.805,6.029,13.2982,4.59999,2470.133,2020-9-29T11:04:44Z
2020-09-29T09:06:55Z,42.805,6.029,13.2983,4.59989,2470.156,2020-9-29T11:07:48Z
2020-09-29T09:09:58Z,42.805,6.029,13.2981,4.59994,2470.133,2020-9-29T11:10:51Z
2020-09-29T09:13:01Z,42.805,6.029,13.2984,4.59993,2470.18,2020-9-29T11:13:54Z
2020-09-29T09:16:04Z,42.805,6.029,13.2982,4.59991,2470.133,2020-9-29T11:16:57Z
2020-09-29T09:19:07Z,42.805,6.029,13.2983,4.59991,2470.124,2020-9-29T11:20:00Z
2020-09-29T09:22:10Z,42.805,6.029,13.2986,4.59992,2470.156,2020-9-29T11:23:03Z
2020-09-29T09:25:14Z,42.805,6.029,13.2988,4.59991,2470.133,2020-9-29T11:26:06Z
2020-09-29T09:28:17Z,42.805,6.029,13.2982,4.59994,2470.147,2020-9-29T11:29:09Z
2020-09-29T09:31:20Z,42.805,6.029,13.2984,4.59991,2470.11,2020-9-29T11:32:13Z
2020-09-29T09:34:23Z,42.805,6.029,13.2980,4.59989,2470.11,2020-9-29T11:35:16Z
2020-09-29T09:37:26Z,42.805,6.029,13.2980,4.59990,2470.147,2020-9-29T11:38:19Z
2020-09-29T09:40:29Z,42.805,6.029,13.2985,4.59991,2470.147,2020-9-29T11:41:22Z
2020-09-29T09:43:32Z,42.805,6.029,13.2984,4.59995,2470.124,2020-9-29T11:44:25Z
2020-09-29T09:46:35Z,42.805,6.029,13.2988,4.59995,2470.147,2020-9-29T11:47:28Z
2020-09-29T09:49:39Z,42.805,6.029,13.2985,4.59994,2470.11,2020-9-29T11:50:31Z
2020-09-29T09:52:42Z,42.805,6.029,13.2984,4.59996,2470.147,2020-9-29T11:53:34Z
2020-09-29T09:55:45Z,42.805,6.029,13.2986,4.59992,2470.124,2020-9-29T11:56:38Z
2020-09-29T09:58:48Z,42.805,6.029,13.2981,4.59993,2470.147,2020-9-29T11:59:41Z
2020-09-29T10:01:51Z,42.805,6.029,13.2988,4.60006,2470.133,2020-9-29T12:02:44Z
2020-09-29T10:04:54Z,42.805,6.029,13.2984,4.60004,2470.124,2020-9-29T12:05:47Z
2020-09-29T10:07:57Z,42.805,6.029,13.2982,4.59992,2470.124,2020-9-29T12:08:50Z
2020-09-29T10:11:00Z,42.805,6.029,13.2983,4.59991,2470.11,2020-9-29T12:11:53Z
2020-09-29T10:14:04Z,42.805,6.029,13.2980,4.59990,2470.133,2020-9-29T12:14:56Z
2020-09-29T10:17:07Z,42.805,6.029,13.2979,4.59990,2470.11,2020-9-29T12:17:59Z
2020-09-29T10:20:10Z,42.805,6.029,13.2983,4.59992,2470.11,2020-9-29T12:21:03Z
2020-09-29T10:23:13Z,42.805,6.029,13.2983,4.59991,2470.11,2020-9-29T12:24:06Z
2020-09-29T10:26:16Z,42.805,6.029,13.2982,4.59993,2470.11,2020-9-29T12:27:09Z
2020-09-29T10:29:19Z,42.805,6.029,13.2986,4.59997,2470.124,2020-9-29T12:30:12Z
2020-09-29T10:32:22Z,42.805,6.029,13.2984,4.59991,2470.11,2020-9-29T12:33:15Z
2020-09-29T10:35:25Z,42.805,6.029,13.2992,4.59996,2470.11,2020-9-29T12:36:18Z
2020-09-29T10:38:29Z,42.805,6.029,13.2986,4.59993,2470.063,2020-9-29T12:39:21Z
2020-09-29T10:41:32Z,42.805,6.029,13.2986,4.59992,2470.11,2020-9-29T12:42:24Z
2020-09-29T10:44:35Z,42.805,6.029,13.2982,4.59990,2470.11,2020-9-29T12:45:28Z
2020-09-29T10:47:38Z,42.805,6.029,13.2982,4.59993,2470.087,2020-9-29T12:48:31Z
2020-09-29T10:50:41Z,42.805,6.029,13.2985,4.59991,2470.087,2020-9-29T12:51:34Z
2020-09-29T10:53:44Z,42.805,6.029,13.2990,4.59999,2470.114,2020-9-29T12:54:37Z
2020-09-29T10:56:47Z,42.805,6.029,13.2986,4.59994,2470.087,2020-9-29T12:57:40Z
2020-09-29T10:59:50Z,42.805,6.029,13.2990,4.59991,2470.124,2020-9-29T13:00:43Z
2020-09-29T11:02:54Z,42.805,6.029,13.2987,4.60009,2470.1,2020-9-29T13:03:46Z
2020-09-29T11:05:57Z,42.805,6.029,13.2984,4.59991,2470.087,2020-9-29T13:06:49Z
2020-09-29T11:09:00Z,42.805,6.029,13.2986,4.59995,2470.11,2020-9-29T13:09:53Z
2020-09-29T11:12:03Z,42.805,6.029,13.2986,4.59992,2470.087,2020-9-29T13:12:56Z
2020-09-29T11:15:06Z,42.805,6.029,13.2986,4.60000,2470.11,2020-9-29T13:15:59Z
2020-09-29T11:18:09Z,42.805,6.029,13.2984,4.59992,2470.124,2020-9-29T13:19:02Z
2020-09-29T11:21:12Z,42.805,6.029,13.2985,4.59993,2470.077,2020-9-29T13:22:05Z
2020-09-29T11:24:15Z,42.805,6.029,13.2992,4.60000,2470.063,2020-9-29T13:25:08Z
2020-09-29T11:27:19Z,42.805,6.029,13.2985,4.59994,2470.124,2020-9-29T13:28:11Z
2020-09-29T11:30:22Z,42.805,6.029,13.2981,4.59997,2470.087,2020-9-29T13:31:14Z
2020-09-29T11:33:25Z,42.805,6.029,13.2990,4.59994,2470.1,2020-9-29T13:34:18Z
2020-09-29T11:36:28Z,42.805,6.029,13.2985,4.59999,2470.1,2020-9-29T13:37:21Z
2020-09-29T11:39:31Z,42.805,6.029,13.3001,4.60004,2470.087,2020-9-29T13:40:24Z
2020-09-29T11:42:34Z,42.805,6.029,13.2991,4.59999,2470.1,2020-9-29T13:43:27Z
2020-09-29T11:45:37Z,42.805,6.029,13.2983,4.59994,2470.124,2020-9-29T13:46:30Z
2020-09-29T11:48:40Z,42.805,6.029,13.2991,4.59992,2470.124,2020-9-29T13:49:33Z
2020-09-29T11:51:44Z,42.805,6.029,13.2988,4.59989,2470.1,2020-9-29T13:52:36Z
2020-09-29T11:54:47Z,42.805,6.029,13.2987,4.59991,2470.087,2020-9-29T13:55:39Z
2020-09-29T11:57:50Z,42.805,6.029,13.2983,4.59991,2470.11,2020-9-29T13:58:43Z
2020-09-29T12:00:53Z,42.805,6.029,13.2990,4.59995,2470.1,2020-9-29T14:01:46Z
2020-09-29T12:03:56Z,42.805,6.029,13.2983,4.59996,2470.11,2020-9-29T14:04:49Z
2020-09-29T12:06:59Z,42.805,6.029,13.2983,4.59998,2470.11,2020-9-29T14:07:52Z
2020-09-29T12:10:02Z,42.805,6.029,13.2988,4.59989,2470.1,2020-9-29T14:10:55Z
2020-09-29T12:13:05Z,42.805,6.029,13.2991,4.59995,2470.1,2020-9-29T14:13:58Z
2020-09-29T12:16:09Z,42.805,6.029,13.2986,4.59994,2470.11,2020-9-29T14:17:01Z
2020-09-29T12:19:12Z,42.805,6.029,13.2983,4.59993,2470.124,2020-9-29T14:20:05Z
2020-09-29T12:22:15Z,42.805,6.029,13.2986,4.59995,2470.063,2020-9-29T14:23:08Z
2020-09-29T12:25:18Z,42.805,6.029,13.2983,4.59993,2470.11,2020-9-29T14:26:11Z
2020-09-29T12:28:21Z,42.805,6.029,13.2984,4.59998,2470.1,2020-9-29T14:29:14Z
2020-09-29T12:31:24Z,42.805,6.029,13.2986,4.59994,2470.087,2020-9-29T14:32:17Z
2020-09-29T12:34:27Z,42.805,6.029,13.2992,4.59997,2470.087,2020-9-29T14:35:20Z
2020-09-29T12:37:31Z,42.805,6.029,13.2986,4.59993,2470.1,2020-9-29T14:38:23Z
2020-09-29T12:40:34Z,42.805,6.029,13.2990,4.59996,2470.11,2020-9-29T14:41:26Z
2020-09-29T12:43:37Z,42.805,6.029,13.2983,4.59997,2470.087,2020-9-29T14:44:30Z
2020-09-29T12:46:40Z,42.805,6.029,13.2989,4.59996,2470.124,2020-9-29T14:47:33Z
2020-09-29T12:49:43Z,42.805,6.029,13.2983,4.59994,2470.1,2020-9-29T14:50:36Z
2020-09-29T12:52:46Z,42.805,6.029,13.2986,4.59994,2470.11,2020-9-29T14:53:39Z
2020-09-29T12:55:49Z,42.805,6.029,13.2986,4.59995,2470.1,2020-9-29T14:56:42Z
2020-09-29T12:58:52Z,42.805,6.029,13.2987,4.59996,2470.124,2020-9-29T14:59:45Z
2020-09-29T13:01:56Z,42.805,6.029,13.2993,4.60010,2470.063,2020-9-29T15:02:48Z
2020-09-29T13:04:59Z,42.805,6.029,13.2989,4.60001,2470.087,2020-9-29T15:05:51Z
2020-09-29T13:08:02Z,42.805,6.029,13.2992,4.60004,2470.1,2020-9-29T15:08:55Z
2020-09-29T13:11:05Z,42.805,6.029,13.2993,4.59999,2470.087,2020-9-29T15:11:58Z
2020-09-29T13:14:08Z,42.805,6.029,13.2988,4.59992,2470.1,2020-9-29T15:15:01Z
2020-09-29T13:17:11Z,42.805,6.029,13.2990,4.59997,2470.087,2020-9-29T15:18:04Z
2020-09-29T13:20:14Z,42.805,6.029,13.2983,4.60002,2470.087,2020-9-29T15:21:07Z
2020-09-29T13:23:17Z,42.805,6.029,13.2982,4.59999,2470.124,2020-9-29T15:24:10Z
2020-09-29T13:26:21Z,42.805,6.029,13.2986,4.60005,2470.124,2020-9-29T15:27:13Z
2020-09-29T13:29:24Z,42.805,6.029,13.2989,4.59998,2470.1,2020-9-29T15:30:16Z
2020-09-29T13:32:27Z,42.805,6.029,13.2991,4.59998,2470.087,2020-9-29T15:33:20Z
2020-09-29T13:35:30Z,42.805,6.029,13.2990,4.59996,2470.124,2020-9-29T15:36:23Z
2020-09-29T13:38:33Z,42.805,6.029,13.2984,4.59995,2470.11,2020-9-29T15:39:26Z
2020-09-29T13:41:36Z,42.805,6.029,13.2989,4.59995,2470.087,2020-9-29T15:42:29Z
2020-09-29T13:44:39Z,42.805,6.029,13.2983,4.59994,2470.124,2020-9-29T15:45:32Z
2020-09-29T13:47:42Z,42.805,6.029,13.2980,4.59996,2470.147,2020-9-29T15:48:35Z
2020-09-29T13:50:46Z,42.805,6.029,13.2981,4.59994,2470.147,2020-9-29T15:51:38Z
2020-09-29T13:53:49Z,42.805,6.029,13.2984,4.59991,2470.087,2020-9-29T15:54:41Z
2020-09-29T13:56:52Z,42.805,6.029,13.2983,4.59994,2470.124,2020-9-29T15:57:45Z
2020-09-29T13:59:55Z,42.805,6.029,13.2984,4.59996,2470.11,2020-9-29T16:00:48Z
2020-09-29T14:02:58Z,42.805,6.029,13.2983,4.59992,2470.1,2020-9-29T16:03:51Z
2020-09-29T14:06:01Z,42.805,6.029,13.2986,4.59994,2470.133,2020-9-29T16:06:54Z
2020-09-29T14:09:04Z,42.805,6.029,13.2983,4.59993,2470.11,2020-9-29T16:09:57Z
2020-09-29T14:12:07Z,42.805,6.029,13.2987,4.60003,2470.11,2020-9-29T16:13:00Z
2020-09-29T14:15:11Z,42.805,6.029,13.2983,4.59995,2470.133,2020-9-29T16:16:03Z
2020-09-29T14:18:14Z,42.805,6.029,13.2984,4.59991,2470.11,2020-9-29T16:19:07Z
2020-09-29T14:21:17Z,42.805,6.029,13.2988,4.59994,2470.156,2020-9-29T16:22:10Z
2020-09-29T14:24:20Z,42.805,6.029,13.2985,4.59996,2470.1,2020-9-29T16:25:13Z
2020-09-29T14:27:23Z,42.805,6.029,13.2985,4.59997,2470.156,2020-9-29T16:28:16Z
2020-09-29T14:30:26Z,42.805,6.029,13.2988,4.60003,2470.147,2020-9-29T16:31:19Z
2020-09-29T14:33:29Z,42.805,6.029,13.2984,4.60000,2470.124,2020-9-29T16:34:22Z
2020-09-29T14:36:33Z,42.805,6.029,13.2983,4.59991,2470.11,2020-9-29T16:37:25Z
2020-09-29T14:39:36Z,42.805,6.029,13.2981,4.59994,2470.194,2020-9-29T16:40:28Z
2020-09-29T14:42:39Z,42.805,6.029,13.2985,4.59998,2470.147,2020-9-29T16:43:32Z
2020-09-29T14:45:42Z,42.805,6.029,13.2991,4.59996,2470.171,2020-9-29T16:46:35Z
2020-09-29T14:48:45Z,42.805,6.029,13.2990,4.59993,2470.156,2020-9-29T16:49:38Z
2020-09-29T14:51:48Z,42.805,6.029,13.2990,4.59994,2470.171,2020-9-29T16:52:41Z
2020-09-29T14:54:51Z,42.805,6.029,13.2984,4.59994,2470.124,2020-9-29T16:55:44Z
2020-09-29T14:57:54Z,42.805,6.029,13.2988,4.59996,2470.133,2020-9-29T16:58:47Z
2020-09-29T15:00:58Z,42.805,6.029,13.2988,4.59998,2470.156,2020-9-29T17:01:50Z
2020-09-29T15:04:01Z,42.805,6.029,13.2984,4.59997,2470.18,2020-9-29T17:04:53Z
2020-09-29T15:07:04Z,42.805,6.029,13.2983,4.59990,2470.18,2020-9-29T17:07:57Z
2020-09-29T15:10:07Z,42.805,6.029,13.2984,4.60001,2470.203,2020-9-29T17:11:00Z
2020-09-29T15:13:10Z,42.805,6.029,13.2987,4.59994,2470.156,2020-9-29T17:14:03Z
2020-09-29T15:16:13Z,42.805,6.029,13.2985,4.60006,2470.203,2020-9-29T17:17:06Z
2020-09-29T15:19:16Z,42.805,6.029,13.2984,4.60006,2470.194,2020-9-29T17:20:09Z
2020-09-29T15:22:19Z,42.805,6.029,13.2990,4.59999,2470.203,2020-9-29T17:23:12Z
2020-09-29T15:25:23Z,42.805,6.029,13.2983,4.59996,2470.203,2020-9-29T17:26:15Z
2020-09-29T15:28:26Z,42.805,6.029,13.2986,4.60009,2470.194,2020-9-29T17:29:18Z
2020-09-29T15:31:29Z,42.805,6.029,13.2986,4.59999,2470.203,2020-9-29T17:32:22Z
2020-09-29T15:34:32Z,42.805,6.029,13.2989,4.60011,2470.217,2020-9-29T17:35:25Z
2020-09-29T15:37:35Z,42.805,6.029,13.2980,4.59999,2470.227,2020-9-29T17:38:28Z
2020-09-29T15:40:38Z,42.805,6.029,13.2986,4.59992,2470.18,2020-9-29T17:41:31Z
2020-09-29T15:43:41Z,42.805,6.029,13.2981,4.59994,2470.203,2020-9-29T17:44:34Z
2020-09-29T15:46:44Z,42.805,6.029,13.2985,4.59991,2470.227,2020-9-29T17:47:37Z
2020-09-29T15:49:48Z,42.805,6.029,13.2983,4.60001,2470.24,2020-9-29T17:50:40Z
2020-09-29T15:52:51Z,42.805,6.029,13.2983,4.59994,2470.203,2020-9-29T17:53:44Z
2020-09-29T15:55:54Z,42.805,6.029,13.2984,4.60012,2470.227,2020-9-29T17:56:47Z
2020-09-29T15:58:57Z,42.805,6.029,13.2986,4.59999,2470.227,2020-9-29T17:59:50Z
2020-09-29T16:02:00Z,42.805,6.029,13.2982,4.59996,2470.24,2020-9-29T18:02:53Z
2020-09-29T16:05:03Z,42.805,6.029,13.2986,4.60003,2470.227,2020-9-29T18:05:56Z
2020-09-29T16:08:06Z,42.805,6.029,13.2986,4.59994,2470.203,2020-9-29T18:08:59Z
2020-09-29T16:11:09Z,42.805,6.029,13.2986,4.59996,2470.227,2020-9-29T18:12:02Z
2020-09-29T16:14:13Z,42.805,6.029,13.2984,4.59995,2470.25,2020-9-29T18:15:05Z
2020-09-29T16:17:16Z,42.805,6.029,13.2987,4.59993,2470.25,2020-9-29T18:18:09Z
2020-09-29T16:20:19Z,42.805,6.029,13.2980,4.59996,2470.227,2020-9-29T18:21:12Z
2020-09-29T16:23:22Z,42.805,6.029,13.2984,4.59996,2470.227,2020-9-29T18:24:15Z
2020-09-29T16:26:25Z,42.805,6.029,13.2986,4.60011,2470.25,2020-9-29T18:27:18Z
2020-09-29T16:29:28Z,42.805,6.029,13.2986,4.59994,2470.25,2020-9-29T18:30:21Z
2020-09-29T16:32:31Z,42.805,6.029,13.2983,4.59996,2470.25,2020-9-29T18:33:24Z
2020-09-29T16:35:34Z,42.805,6.029,13.2986,4.60006,2470.273,2020-9-29T18:36:27Z
2020-09-29T16:38:38Z,42.805,6.029,13.2984,4.60002,2470.287,2020-9-29T18:39:30Z
2020-09-29T16:41:41Z,42.805,6.029,13.2983,4.59994,2470.273,2020-9-29T18:42:34Z
2020-09-29T16:44:44Z,42.805,6.029,13.2986,4.59990,2470.227,2020-9-29T18:45:37Z
2020-09-29T16:47:47Z,42.805,6.029,13.2986,4.59993,2470.273,2020-9-29T18:48:40Z
2020-09-29T16:50:50Z,42.805,6.029,13.2986,4.59995,2470.273,2020-9-29T18:51:43Z
2020-09-29T16:53:53Z,42.805,6.029,13.2985,4.59991,2470.227,2020-9-29T18:54:46Z
2020-09-29T16:56:56Z,42.805,6.029,13.2978,4.59992,2470.287,2020-9-29T18:57:49Z
2020-09-29T17:00:00Z,42.805,6.029,13.2982,4.59986,2470.297,2020-9-29T19:00:52Z
2020-09-29T17:03:03Z,42.805,6.029,13.2983,4.59991,2470.297,2020-9-29T19:03:55Z
2020-09-29T17:06:06Z,42.805,6.029,13.2984,4.59994,2470.287,2020-9-29T19:06:59Z
2020-09-29T17:09:09Z,42.805,6.029,13.2983,4.59991,2470.273,2020-9-29T19:10:02Z
2020-09-29T17:12:12Z,42.805,6.029,13.2990,4.59992,2470.273,2020-9-29T19:13:05Z
2020-09-29T17:15:15Z,42.805,6.029,13.2986,4.59993,2470.287,2020-9-29T19:16:08Z
2020-09-29T17:18:18Z,42.805,6.029,13.2982,4.59991,2470.273,2020-9-29T19:19:11Z
2020-09-29T17:21:21Z,42.805,6.029,13.2986,4.60016,2470.264,2020-9-29T19:22:14Z
2020-09-29T17:24:25Z,42.805,6.029,13.2982,4.59999,2470.26,2020-9-29T19:25:17Z
2020-09-29T17:27:28Z,42.805,6.029,13.2986,4.59996,2470.297,2020-9-29T19:28:20Z
2020-09-29T17:30:31Z,42.805,6.029,13.2984,4.59993,2470.287,2020-9-29T19:31:24Z
2020-09-29T17:33:34Z,42.805,6.029,13.2983,4.59991,2470.273,2020-9-29T19:34:27Z
2020-09-29T17:36:37Z,42.805,6.029,13.2986,4.59996,2470.273,2020-9-29T19:37:30Z
2020-09-29T17:39:40Z,42.805,6.029,13.2982,4.59991,2470.297,2020-9-29T19:40:33Z
2020-09-29T17:42:43Z,42.805,6.029,13.2986,4.59993,2470.287,2020-9-29T19:43:36Z
2020-09-29T17:45:46Z,42.805,6.029,13.2983,4.59995,2470.32,2020-9-29T19:46:39Z
2020-09-29T17:48:50Z,42.805,6.029,13.2982,4.59990,2470.32,2020-9-29T19:49:42Z
2020-09-29T17:51:53Z,42.805,6.029,13.2983,4.59991,2470.297,2020-9-29T19:52:45Z
2020-09-29T17:54:56Z,42.805,6.029,13.2983,4.59993,2470.334,2020-9-29T19:55:49Z
2020-09-29T17:57:59Z,42.805,6.029,13.2979,4.59990,2470.273,2020-9-29T19:58:52Z
2020-09-29T18:01:02Z,42.805,6.029,13.2982,4.60004,2470.334,2020-9-29T20:01:55Z
2020-09-29T18:04:05Z,42.805,6.029,13.2982,4.59994,2470.297,2020-9-29T20:04:58Z
2020-09-29T18:07:08Z,42.805,6.029,13.2981,4.59991,2470.273,2020-9-29T20:08:01Z
2020-09-29T18:10:11Z,42.805,6.029,13.2984,4.59996,2470.273,2020-9-29T20:11:04Z
2020-09-29T18:13:15Z,42.805,6.029,13.2979,4.59999,2470.297,2020-9-29T20:14:07Z
2020-09-29T18:16:18Z,42.805,6.029,13.2990,4.60013,2470.32,2020-9-29T20:17:10Z
2020-09-29T18:19:21Z,42.805,6.029,13.2982,4.59995,2470.31,2020-9-29T20:20:14Z
2020-09-29T18:22:24Z,42.805,6.029,13.2983,4.60002,2470.32,2020-9-29T20:23:17Z
2020-09-29T18:25:27Z,42.805,6.029,13.2985,4.59999,2470.273,2020-9-29T20:26:20Z
2020-09-29T18:28:30Z,42.805,6.029,13.2984,4.59997,2470.32,2020-9-29T20:29:23Z
2020-09-29T18:31:33Z,42.805,6.029,13.2987,4.59996,2470.273,2020-9-29T20:32:26Z
2020-09-29T18:34:36Z,42.805,6.029,13.2985,4.59992,2470.273,2020-9-29T20:35:29Z
2020-09-29T18:37:40Z,42.805,6.029,13.2986,4.59995,2470.287,2020-9-29T20:38:32Z
2020-09-29T18:40:43Z,42.805,6.029,13.2982,4.59993,2470.287,2020-9-29T20:41:36Z
2020-09-29T18:43:46Z,42.805,6.029,13.2982,4.59991,2470.31,2020-9-29T20:44:39Z
2020-09-29T18:46:49Z,42.805,6.029,13.2984,4.59994,2470.297,2020-9-29T20:47:42Z
2020-09-29T18:49:52Z,42.805,6.029,13.2984,4.59999,2470.273,2020-9-29T20:50:45Z
2020-09-29T18:52:55Z,42.805,6.029,13.2982,4.59990,2470.287,2020-9-29T20:53:48Z
2020-09-29T18:55:58Z,42.805,6.029,13.2982,4.59993,2470.273,2020-9-29T20:56:51Z
2020-09-29T18:59:01Z,42.805,6.029,13.2989,4.60009,2470.297,2020-9-29T20:59:54Z
2020-09-29T19:02:05Z,42.805,6.029,13.2983,4.59988,2470.287,2020-9-29T21:02:57Z
2020-09-29T19:05:08Z,42.805,6.029,13.2987,4.59996,2470.31,2020-9-29T21:06:01Z
2020-09-29T19:08:11Z,42.805,6.029,13.2981,4.59991,2470.264,2020-9-29T21:09:04Z
2020-09-29T19:11:14Z,42.805,6.029,13.2987,4.59994,2470.287,2020-9-29T21:12:07Z
2020-09-29T19:14:17Z,42.805,6.029,13.2982,4.59990,2470.264,2020-9-29T21:15:10Z
2020-09-29T19:17:20Z,42.805,6.029,13.2986,4.59997,2470.287,2020-9-29T21:18:13Z
2020-09-29T19:20:23Z,42.805,6.029,13.2991,4.60005,2470.297,2020-9-29T21:21:16Z
2020-09-29T19:23:26Z,42.805,6.029,13.2983,4.59998,2470.227,2020-9-29T21:24:19Z
2020-09-29T19:26:30Z,42.805,6.029,13.2982,4.59992,2470.25,2020-9-29T21:27:22Z
2020-09-29T19:29:33Z,42.805,6.029,13.2990,4.59996,2470.287,2020-9-29T21:30:26Z
2020-09-29T19:32:36Z,42.805,6.029,13.2990,4.60000,2470.287,2020-9-29T21:33:29Z
2020-09-29T19:35:39Z,42.805,6.029,13.2984,4.59992,2470.287,2020-9-29T21:36:32Z
2020-09-29T19:38:42Z,42.805,6.029,13.2987,4.60003,2470.287,2020-9-29T21:39:35Z
2020-09-29T19:41:45Z,42.805,6.029,13.2982,4.59994,2470.227,2020-9-29T21:42:38Z
2020-09-29T19:44:48Z,42.805,6.029,13.2989,4.59991,2470.25,2020-9-29T21:45:41Z
2020-09-29T19:47:52Z,42.805,6.029,13.2981,4.59988,2470.25,2020-9-29T21:48:44Z
2020-09-29T19:50:55Z,42.805,6.029,13.2991,4.59994,2470.31,2020-9-29T21:51:47Z
2020-09-29T19:53:58Z,42.805,6.029,13.2981,4.59990,2470.264,2020-9-29T21:54:51Z
2020-09-29T19:57:01Z,42.805,6.029,13.2982,4.59999,2470.264,2020-9-29T21:57:54Z
2020-09-29T20:00:04Z,42.805,6.029,13.2983,4.60007,2470.227,2020-9-29T22:00:57Z
2020-09-29T20:03:07Z,42.805,6.029,13.2981,4.59999,2470.264,2020-9-29T22:04:00Z
2020-09-29T20:06:10Z,42.805,6.029,13.2986,4.59995,2470.236,2020-9-29T22:07:03Z
2020-09-29T20:09:13Z,42.805,6.029,13.2998,4.60011,2470.227,2020-9-29T22:10:06Z
2020-09-29T20:12:17Z,42.805,6.029,13.2983,4.59999,2470.227,2020-9-29T22:13:09Z
2020-09-29T20:15:20Z,42.805,6.029,13.2982,4.59996,2470.25,2020-9-29T22:16:12Z
2020-09-29T20:18:23Z,42.805,6.029,13.2983,4.59991,2470.25,2020-9-29T22:19:16Z
2020-09-29T20:21:26Z,42.805,6.029,13.2985,4.59993,2470.24,2020-9-29T22:22:19Z
2020-09-29T20:24:29Z,42.805,6.029,13.2979,4.59988,2470.24,2020-9-29T22:25:22Z
2020-09-29T20:27:32Z,42.805,6.029,13.2987,4.59993,2470.25,2020-9-29T22:28:25Z
2020-09-29T20:30:35Z,42.805,6.029,13.2981,4.59987,2470.264,2020-9-29T22:31:28Z
2020-09-29T20:33:38Z,42.805,6.029,13.2982,4.59990,2470.264,2020-9-29T22:34:31Z
2020-09-29T20:36:42Z,42.805,6.029,13.2982,4.60003,2470.217,2020-9-29T22:37:34Z
2020-09-29T20:39:45Z,42.805,6.029,13.2980,4.59991,2470.24,2020-9-29T22:40:37Z
2020-09-29T20:42:48Z,42.805,6.029,13.2986,4.59992,2470.24,2020-9-29T22:43:41Z
2020-09-29T20:45:51Z,42.805,6.029,13.2982,4.59996,2470.25,2020-9-29T22:46:44Z
2020-09-29T20:48:54Z,42.805,6.029,13.2988,4.59996,2470.24,2020-9-29T22:49:47Z
2020-09-29T20:51:57Z,42.805,6.029,13.2982,4.59993,2470.203,2020-9-29T22:52:50Z
2020-09-29T20:55:00Z,42.805,6.029,13.2985,4.60007,2470.227,2020-9-29T22:55:53Z
2020-09-29T20:58:03Z,42.805,6.029,13.2983,4.59999,2470.203,2020-9-29T22:58:56Z
2020-09-29T21:01:07Z,42.805,6.029,13.2988,4.60000,2470.217,2020-9-29T23:01:59Z
2020-09-29T21:04:10Z,42.805,6.029,13.2982,4.59997,2470.227,2020-9-29T23:05:03Z
2020-09-29T21:07:13Z,42.805,6.029,13.2982,4.60004,2470.217,2020-9-29T23:08:06Z
2020-09-29T21:10:16Z,42.805,6.029,13.2985,4.59992,2470.203,2020-9-29T23:11:09Z
2020-09-29T21:13:19Z,42.805,6.029,13.2982,4.60005,2470.24,2020-9-29T23:14:12Z
2020-09-29T21:16:22Z,42.805,6.029,13.2982,4.59994,2470.217,2020-9-29T23:17:15Z
2020-09-29T21:19:25Z,42.805,6.029,13.2983,4.59990,2470.18,2020-9-29T23:20:18Z
2020-09-29T21:22:28Z,42.805,6.029,13.2979,4.59992,2470.203,2020-9-29T23:23:21Z
2020-09-29T21:25:32Z,42.805,6.029,13.2983,4.60026,2470.217,2020-9-29T23:26:24Z
2020-09-29T21:28:35Z,42.805,6.029,13.2982,4.59995,2470.194,2020-9-29T23:29:28Z
2020-09-29T21:31:38Z,42.805,6.029,13.2984,4.60013,2470.203,2020-9-29T23:32:31Z
2020-09-29T21:34:41Z,42.805,6.029,13.2986,4.59996,2470.194,2020-9-29T23:35:34Z
2020-09-29T21:37:44Z,42.805,6.029,13.2981,4.59988,2470.18,2020-9-29T23:38:37Z
2020-09-29T21:40:47Z,42.805,6.029,13.2982,4.59988,2470.203,2020-9-29T23:41:40Z
2020-09-29T21:43:50Z,42.805,6.029,13.2981,4.59990,2470.156,2020-9-29T23:44:43Z
2020-09-29T21:46:54Z,42.805,6.029,13.2979,4.59989,2470.156,2020-9-29T23:47:46Z
2020-09-29T21:49:57Z,42.805,6.029,13.2985,4.59995,2470.156,2020-9-29T23:50:49Z
2020-09-29T21:53:00Z,42.805,6.029,13.2983,4.59991,2470.18,2020-9-29T23:53:53Z
2020-09-29T21:56:03Z,42.805,6.029,13.2990,4.59993,2470.194,2020-9-29T23:56:56Z
2020-09-29T21:59:06Z,42.805,6.029,13.2982,4.59998,2470.18,2020-9-29T23:59:59Z
2020-09-29T22:02:09Z,42.805,6.029,13.2982,4.59991,2470.156,2020-9-30T00:03:02Z
2020-09-29T22:05:12Z,42.805,6.029,13.2984,4.59990,2470.156,2020-9-30T00:06:05Z
2020-09-29T22:08:15Z,42.805,6.029,13.2982,4.59990,2470.217,2020-9-30T00:09:08Z
2020-09-29T22:11:19Z,42.805,6.029,13.2986,4.59989,2470.171,2020-9-30T00:12:11Z
2020-09-29T22:14:22Z,42.805,6.029,13.2979,4.59986,2470.156,2020-9-30T00:15:14Z
2020-09-29T22:17:25Z,42.805,6.029,13.2982,4.59989,2470.194,2020-9-30T00:18:18Z
2020-09-29T22:20:28Z,42.805,6.029,13.2980,4.59986,2470.147,2020-9-30T00:21:21Z
2020-09-29T22:23:31Z,42.805,6.029,13.2985,4.59994,2470.147,2020-9-30T00:24:24Z
2020-09-29T22:26:34Z,42.805,6.029,13.2985,4.59993,2470.171,2020-9-30T00:27:27Z